Weather History for Clinton, MO

Change the Weather History Date:

Tuesday, July 30, 2013

  Actual Average (KSZL) Record (KSZL)
Temperature  
Mean Temperature 78 °F -  
Max Temperature 84 °F 86 °F 102 °F (1999)
Min Temperature 71 °F 68 °F 57 °F (1997)
Cooling Degree Days 12    
Growing Degree Days 28 (Base 50)    
Moisture  
Dew Point 73 °F    
Average Humidity 88    
Maximum Humidity 100    
Minimum Humidity 70    
Precipitation  
Precipitation 0.00 in - - ()
Sea Level Pressure  
Sea Level Pressure 30.01 in    
Wind  
Wind Speed 6 mph (SSW)    
Max Wind Speed 13 mph    
Max Gust Speed 17 mph    
Visibility 8 miles    
Events Thunderstorm    
Averages and records for this station are not official NWS values.
T = Trace of Precipitation, MM = Missing Value Source: NWS Daily Summary

Daily Weather History Graph

Daily Weather History Graph

Search for Another Location

Airport:

Trip Planner

Search our weather history database for the weather conditions in past years. The results will help you decide how hot, cold, wet, or windy it might be!

Date:

Astronomy

Jul. 30, 2013 Rise Set
Actual Time 6:15 AM CDT 8:26 PM CDT
Civil Twilight 5:45 AM CDT 8:55 PM CDT
Nautical Twilight 5:09 AM CDT 9:31 PM CDT
Astronomical Twilight 4:30 AM CDT 10:11 PM CDT
Moon 12:33 AM CDT (7/30) 2:47 PM CDT (7/30)
Length of Visible Light 15h 09m
Length of Day
14h 10m
Last Quarter, 41% of the Moon is Illuminated
Jul 30
Last Quarter
Aug 6
New
Aug 14
First Quarter
Aug 20
Full
Aug 28
Last Quarter

Hourly Weather History & Observations

Time (CDT) Temp. Heat Index Dew Point Humidity Pressure Visibility Wind Dir Wind Speed Gust Speed Precip Events Conditions
12:15 AM 73.4 °F - 71.6 °F 94% 30.03 in 6.0 mi SE 6.9 mph - N/A   Light Drizzle
12:35 AM 73.4 °F - 71.6 °F 94% 30.02 in 6.0 mi ESE 5.8 mph - N/A   Light Drizzle
12:55 AM 73.4 °F - 71.6 °F 94% 30.02 in 8.0 mi SE 5.8 mph - N/A Thunderstorm Overcast
1:15 AM 73.4 °F - 71.6 °F 94% 30.04 in 6.0 mi Calm Calm - N/A   Light Drizzle
1:35 AM 73.4 °F - 73.4 °F 100% 30.03 in 8.0 mi SSE 12.7 mph - N/A Thunderstorm Overcast
1:55 AM 73.4 °F - 73.4 °F 100% 30.01 in 8.0 mi SSE 9.2 mph - N/A   Mostly Cloudy
2:15 AM 73.4 °F - 73.4 °F 100% 30.00 in 8.0 mi SSE 8.1 mph - N/A   Partly Cloudy
2:35 AM 73.4 °F - 71.6 °F 94% 30.00 in 8.0 mi South 5.8 mph - N/A   Mostly Cloudy
2:55 AM 73.4 °F - 71.6 °F 94% 30.00 in 8.0 mi South 5.8 mph - N/A   Mostly Cloudy
3:15 AM 73.4 °F - 73.4 °F 100% 30.00 in 7.0 mi SSE 5.8 mph - N/A   Mostly Cloudy
3:35 AM 73.4 °F - 73.4 °F 100% 30.00 in 8.0 mi SSE 8.1 mph - N/A   Mostly Cloudy
3:55 AM 73.4 °F - 73.4 °F 100% 30.01 in 9.0 mi South 6.9 mph - N/A   Scattered Clouds
4:15 AM 73.4 °F - 71.6 °F 94% 30.00 in 10.0 mi South 8.1 mph 16.1 mph N/A   Clear
4:35 AM 73.4 °F - 71.6 °F 94% 30.01 in 10.0 mi South 9.2 mph 17.3 mph N/A   Partly Cloudy
4:55 AM 73.4 °F - 71.6 °F 94% 30.00 in 10.0 mi South 8.1 mph - N/A   Scattered Clouds
5:15 AM 73.4 °F - 71.6 °F 94% 30.00 in 10.0 mi South 11.5 mph - N/A   Overcast
5:35 AM 73.4 °F - 71.6 °F 94% 30.00 in 10.0 mi South 10.4 mph - N/A   Mostly Cloudy
5:55 AM 71.6 °F - 69.8 °F 94% 30.00 in 10.0 mi South 8.1 mph - N/A   Mostly Cloudy
6:15 AM 71.6 °F - 69.8 °F 94% 30.01 in 10.0 mi South 10.4 mph - N/A   Overcast
6:35 AM 71.6 °F - 69.8 °F 94% 30.01 in 10.0 mi South 8.1 mph - N/A   Mostly Cloudy
6:55 AM 71.6 °F - 71.6 °F 100% 30.00 in 7.0 mi South 9.2 mph - N/A   Mostly Cloudy
7:15 AM 71.6 °F - 71.6 °F 100% 30.01 in 7.0 mi South 5.8 mph - N/A   Mostly Cloudy
7:35 AM 71.6 °F - 71.6 °F 100% 30.02 in 8.0 mi South 3.5 mph - N/A   Mostly Cloudy
7:55 AM 73.4 °F - 71.6 °F 94% 30.02 in 7.0 mi South 5.8 mph - N/A   Mostly Cloudy
8:15 AM 73.4 °F - 71.6 °F 94% 30.02 in 9.0 mi South 5.8 mph - N/A   Mostly Cloudy
8:35 AM 73.4 °F - 71.6 °F 94% 30.02 in 9.0 mi Calm Calm - N/A   Mostly Cloudy
8:55 AM 75.2 °F - 73.4 °F 94% 30.02 in 10.0 mi SSW 6.9 mph - N/A   Mostly Cloudy
9:15 AM 75.2 °F - 73.4 °F 94% 30.02 in 9.0 mi SW 6.9 mph - N/A   Mostly Cloudy
9:35 AM 75.2 °F - 73.4 °F 94% 30.02 in 9.0 mi SSW 6.9 mph - N/A   Mostly Cloudy
9:55 AM 75.2 °F - 73.4 °F 94% 30.03 in 10.0 mi SW 5.8 mph - N/A   Overcast
10:15 AM 75.2 °F - 73.4 °F 94% 30.03 in 4.0 mi SW 9.2 mph - N/A   Overcast
10:35 AM 78.8 °F - 73.4 °F 83% 30.02 in 9.0 mi SSW 8.1 mph - N/A   Overcast
10:55 AM 78.8 °F - 73.4 °F 83% 30.02 in 9.0 mi SW 11.5 mph - N/A   Overcast
11:15 AM 77.0 °F - 73.4 °F 89% 30.02 in 10.0 mi SSW 5.8 mph - N/A   Overcast
11:55 AM 78.8 °F - 73.4 °F 83% 30.03 in 10.0 mi SW 6.9 mph - N/A   Overcast
12:15 PM 78.8 °F - 73.4 °F 83% 30.03 in 10.0 mi WSW 9.2 mph - N/A   Overcast
12:35 PM 78.8 °F - 73.4 °F 83% 30.02 in 10.0 mi SW 6.9 mph - N/A   Overcast
12:55 PM 78.8 °F - 73.4 °F 83% 30.02 in 10.0 mi SW 8.1 mph - N/A   Overcast
1:15 PM 78.8 °F - 71.6 °F 78% 30.02 in 9.0 mi SW 8.1 mph - N/A   Overcast
1:35 PM 78.8 °F - 73.4 °F 83% 30.02 in 9.0 mi WSW 9.2 mph - N/A   Overcast
1:55 PM 80.6 °F 85.4 °F 73.4 °F 79% 30.02 in 9.0 mi WSW 8.1 mph - N/A   Overcast
2:15 PM 80.6 °F 85.4 °F 73.4 °F 79% 30.02 in 9.0 mi West 8.1 mph - N/A   Overcast
2:35 PM 80.6 °F 85.4 °F 73.4 °F 79% 30.01 in 9.0 mi WSW 6.9 mph - N/A   Overcast
2:55 PM 82.4 °F 88.2 °F 73.4 °F 74% 30.00 in 9.0 mi SW 5.8 mph - N/A   Overcast
3:15 PM 82.4 °F 88.2 °F 73.4 °F 74% 30.00 in 10.0 mi SW 4.6 mph - N/A   Mostly Cloudy
3:35 PM 82.4 °F 88.2 °F 73.4 °F 74% 30.00 in 9.0 mi WSW 6.9 mph - N/A   Mostly Cloudy
3:55 PM 82.4 °F 88.2 °F 73.4 °F 74% 30.00 in 10.0 mi SW 5.8 mph - N/A   Overcast
4:15 PM 82.4 °F 88.2 °F 73.4 °F 74% 30.00 in 10.0 mi West 4.6 mph - N/A   Overcast
4:35 PM 82.4 °F 88.2 °F 73.4 °F 74% 30.00 in 10.0 mi West 5.8 mph - N/A   Overcast
4:55 PM 82.4 °F 88.2 °F 73.4 °F 74% 30.00 in 10.0 mi SW 4.6 mph - N/A   Overcast
5:15 PM 84.2 °F 90.9 °F 73.4 °F 70% 30.00 in 10.0 mi WSW 5.8 mph - N/A   Mostly Cloudy
5:35 PM 84.2 °F 90.9 °F 73.4 °F 70% 29.99 in 10.0 mi SW 8.1 mph - N/A   Mostly Cloudy
5:55 PM 84.2 °F 90.9 °F 73.4 °F 70% 29.99 in 10.0 mi SW 5.8 mph - N/A   Partly Cloudy
6:15 PM 84.2 °F 90.9 °F 73.4 °F 70% 29.99 in 10.0 mi WSW 6.9 mph - N/A   Partly Cloudy
6:35 PM 82.4 °F 88.2 °F 73.4 °F 74% 29.99 in 10.0 mi West 4.6 mph - N/A   Partly Cloudy
6:55 PM 82.4 °F 89.5 °F 75.2 °F 79% 29.99 in 9.0 mi West 3.5 mph - N/A   Mostly Cloudy
7:15 PM 82.4 °F 88.2 °F 73.4 °F 74% 29.99 in 10.0 mi Calm Calm - N/A   Overcast
7:35 PM 82.4 °F 88.2 °F 73.4 °F 74% 29.99 in 8.0 mi NNW 5.8 mph - N/A   Mostly Cloudy
7:55 PM 80.6 °F 86.2 °F 75.2 °F 84% 29.99 in 8.0 mi North 5.8 mph - N/A   Mostly Cloudy
8:15 PM 80.6 °F 86.2 °F 75.2 °F 84% 30.00 in 8.0 mi Calm Calm - N/A   Mostly Cloudy
8:35 PM 78.8 °F - 75.2 °F 89% 30.00 in 7.0 mi Calm Calm - N/A   Mostly Cloudy
8:55 PM 78.8 °F - 75.2 °F 89% 30.00 in 8.0 mi Calm Calm - N/A   Mostly Cloudy
9:15 PM 78.8 °F - 75.2 °F 89% 30.01 in 8.0 mi Calm Calm - N/A   Mostly Cloudy
9:35 PM 77.0 °F - 75.2 °F 94% 30.01 in 7.0 mi Calm Calm - N/A   Mostly Cloudy
9:55 PM 75.2 °F - 75.2 °F 100% 30.02 in 6.0 mi Calm Calm - N/A   Partly Cloudy
10:15 PM 75.2 °F - 75.2 °F 100% 30.04 in 7.0 mi Calm Calm - N/A   Clear
10:35 PM 75.2 °F - 75.2 °F 100% 30.04 in 6.0 mi Calm Calm - N/A   Partly Cloudy
10:55 PM 75.2 °F - 75.2 °F 100% 30.05 in 6.0 mi North 5.8 mph - N/A   Partly Cloudy
11:15 PM 75.2 °F - 75.2 °F 100% 30.05 in 5.0 mi North 6.9 mph - N/A   Partly Cloudy
11:35 PM 75.2 °F - 75.2 °F 100% 30.05 in 7.0 mi North 6.9 mph - N/A   Partly Cloudy
11:55 PM 75.2 °F - 75.2 °F 100% 30.05 in 7.0 mi North 5.8 mph - N/A   Partly Cloudy